Weather History for Maun, Botswana

Change the Weather History Date:

Sunday, December 30, 2012

  Actual Average Record
Temperature  
Mean Temperature 80 °F -  
Max Temperature 93 °F 88 °F 98 °F (2004)
Min Temperature 68 °F 69 °F 64 °F (2007)
Cooling Degree Days 16    
Growing Degree Days 30 (Base 50)    
Moisture  
Dew Point 65 °F    
Average Humidity 59    
Maximum Humidity 94    
Minimum Humidity 28    
Precipitation  
Precipitation 0.00 in - - ()
Sea Level Pressure  
Sea Level Pressure 29.94 in    
Wind  
Wind Speed 7 mph ()    
Max Wind Speed 21 mph    
Max Gust Speed -    
Visibility 6.2 miles    
Events Rain    
Averages and records for this station are not official NWS values.
T = Trace of Precipitation, MM = Missing Value Source: Averaged Metar Reports

Daily Weather History Graph

Daily Weather History Graph

Search for Another Location

Airport:

Trip Planner

Search our weather history database for the weather conditions in past years. The results will help you decide how hot, cold, wet, or windy it might be!

Date:

Astronomy

Dec. 30, 2012 Rise Set
Actual Time 5:49 AM CAT 7:08 PM CAT
Civil Twilight 5:24 AM CAT 7:33 PM CAT
Nautical Twilight 4:55 AM CAT 8:02 PM CAT
Astronomical Twilight 4:25 AM CAT 8:32 PM CAT
Moon 8:35 PM CAT 7:25 AM CAT
Length of Visible Light 14h 08m
Length of Day
13h 19m
Waning Gibbous, 96% of the Moon is Illuminated
Dec 30
Waning Gibbous
Jan 5
Last Quarter
Jan 11
New
Jan 19
First Quarter
Jan 27
Full

Hourly Weather History & Observations

Time (CAT) Temp. Heat Index Dew Point Humidity Pressure Visibility Wind Dir Wind Speed Gust Speed Precip Events Conditions
12:00 AM 77.0 °F - 71.6 °F 83% 29.95 in 6.2 mi Variable 2.3 mph - N/A   Partly Cloudy
1:00 AM 75.2 °F - 69.8 °F 83% 29.95 in 6.2 mi North 3.5 mph - N/A   Partly Cloudy
3:00 AM 75.2 °F - 69.8 °F 83% 29.92 in - ENE 3.5 mph - N/A   Clear
4:00 AM 71.6 °F - 69.8 °F 94% 29.95 in - SSE 3.5 mph - N/A   Clear
5:00 AM 71.6 °F - 68.0 °F 88% 29.98 in - East 13.8 mph - N/A   Clear
6:00 AM 73.4 °F - 66.2 °F 78% 30.01 in - NE 12.7 mph - N/A   Clear
7:00 AM 73.4 °F - 66.2 °F 78% 30.01 in - NE 10.4 mph - N/A   Clear
8:00 AM 75 °F - 64 °F 59%  in 6 mi NE 8.1 mph - -   Scattered Clouds
8:00 AM 75.2 °F - 64.4 °F 69% 30.01 in - NE 8.1 mph - N/A   Clear
9:00 AM 78.8 °F - 64.4 °F 61% 30.01 in - NE 9.2 mph - N/A   Clear
10:00 AM 84.2 °F 85.6 °F 64.4 °F 51% 29.98 in - NNE 5.8 mph - N/A   Clear
11:00 AM 86.0 °F 86.6 °F 62.6 °F 45% 29.98 in - NE 6.9 mph - N/A   Clear
12:00 PM 87.8 °F 89.4 °F 64.4 °F 46% 29.98 in 6.2 mi North 8.1 mph - N/A   Partly Cloudy
1:00 PM 91.4 °F 92.1 °F 62.6 °F 38% 29.95 in 6.2 mi WNW 3.5 mph - N/A   Partly Cloudy
2:00 PM 92 °F - 63 °F 28%  in 6 mi NE 8.1 mph - -   Partly Cloudy
2:00 PM 91.4 °F 92.1 °F 62.6 °F 38% 29.92 in 6.2 mi NE 8.1 mph - N/A   Partly Cloudy
3:00 PM 91.4 °F 93.2 °F 64.4 °F 41% 29.86 in 6.2 mi NNE 5.8 mph - N/A   Scattered Clouds
4:00 PM 93.2 °F 94.1 °F 62.6 °F 36% 29.83 in 6.2 mi East 6.9 mph - N/A   Scattered Clouds
5:00 PM 93.2 °F 94.1 °F 62.6 °F 36% 29.83 in 6.2 mi ENE 3.5 mph - N/A   Partly Cloudy
6:00 PM 87.8 °F 89.4 °F 64.4 °F 46% 29.83 in 6.2 mi ENE 16.1 mph - N/A   Partly Cloudy
7:00 PM 87.8 °F 90.4 °F 66.2 °F 49% 29.86 in 6.2 mi NE 10.4 mph - N/A   Partly Cloudy
9:00 PM 78.8 °F - 60.8 °F 54% 29.98 in 6.2 mi ENE 20.7 mph - N/A   Scattered Clouds
10:00 PM 77.0 °F - 64.4 °F 65% 30.01 in 6.2 mi ENE 16.1 mph - N/A   Scattered Clouds
11:00 PM 75.2 °F - 64.4 °F 69% 29.98 in 6.2 mi NNE 11.5 mph - N/A Rain Light Rain